Tacoma Narrows, WA
on Friday, February 1, 2013

Friday
Previous Day Next Day
Daily Summary
 ActualAverageRecord
Temperature
Mean Temperature °F °F  
Max Temperature 48°F 46°F 53°F (1998)
Min Temperature 42°F 37°F 26°F (2007)
Degree Days
Heating Degree Days 20    
Moisture
Dew Point 42°F   
Average Humidity 87    
Maximum Humidity 93    
Minimum Humidity 71    
Precipitation
Precipitation 0.01 in in in ()
Wind
Wind Speed 4 mph   
Max Wind Speed 12 mph   
Max Gust Speed mph   
Visibility 8 miles   
Events     
Averages and records for this station are not official NWS values.
Key: T is trace of precipitation, MM is missing value
Source: NWS Daily Summary
Seasonal Weather Averages
Time(PST)TemperatureDew PointHumidity Pressure Visibility Wind DirectionWind SpeedGust SpeedPrecipitationEvents Conditions
12:53 AM 46.0°F 43.0°F 89% 30.35 in 10.0 miles South 5.8 mph - 0.01 in   Overcast
1:05 AM 46.4°F 42.8°F 87% 30.34 in 10.0 miles South 5.8 mph - N/A   Overcast
1:53 AM 46.0°F 44.1°F 93% 30.36 in 10.0 miles Calm Calm - N/A   Overcast
2:53 AM 46.0°F 43.0°F 89% 30.38 in 10.0 miles SSW 3.5 mph - N/A   Overcast
3:09 AM 44.6°F 42.8°F 93% 30.37 in 10.0 miles Calm Calm - N/A   Overcast
3:41 AM 44.6°F 42.8°F 93% 30.37 in 4.0 miles South 4.6 mph - N/A   Overcast
3:50 AM 44.6°F 42.8°F 93% 30.37 in 1.8 miles South 4.6 mph - N/A   Overcast
3:53 AM 45.0°F 43.0°F 93% 30.38 in 1.2 miles SSW 3.5 mph - N/A   Overcast
4:02 AM 44.6°F 42.8°F 93% 30.37 in 3.0 miles Calm Calm - N/A   Overcast
4:53 AM 45.0°F 43.0°F 93% 30.38 in 9.0 miles Calm Calm - N/A   Overcast
5:06 AM 44.6°F 42.8°F 93% 30.37 in 1.5 miles NNW 3.5 mph - N/A   Overcast
5:11 AM 44.6°F 42.8°F 93% 30.37 in 0.8 miles NNW 3.5 mph - N/A   Overcast
5:21 AM 44.6°F 42.8°F 93% 30.37 in 2.5 miles NW 3.5 mph - N/A   Overcast
5:28 AM 44.6°F 42.8°F 93% 30.37 in 9.0 miles WNW 4.6 mph - N/A   Overcast
5:53 AM 45.0°F 43.0°F 93% 30.38 in 8.0 miles Calm Calm - N/A   Overcast
6:06 AM 44.6°F 42.8°F 93% 30.37 in 8.0 miles Calm Calm - N/A   Overcast
6:32 AM 44.6°F 42.8°F 93% 30.37 in 10.0 miles Calm Calm - N/A   Mostly Cloudy
6:53 AM 44.1°F 42.1°F 93% 30.38 in 7.0 miles Calm Calm - N/A   Overcast
7:24 AM 44.6°F 42.8°F 93% 30.37 in 7.0 miles North 3.5 mph - N/A   Overcast
7:30 AM 44.6°F 42.8°F 93% 30.37 in 9.0 miles Calm Calm - N/A   Overcast
7:53 AM 44.1°F 42.1°F 93% 30.38 in 10.0 miles Calm Calm - N/A   Overcast
8:53 AM 44.1°F 41.0°F 89% 30.38 in 10.0 miles Calm Calm - N/A   Mostly Cloudy
9:37 AM 44.6°F 42.8°F 93% 30.38 in 10.0 miles Calm Calm - N/A   Mostly Cloudy
9:53 AM 45.0°F 42.1°F 90% 30.40 in 10.0 miles NNW 3.5 mph - N/A   Overcast
10:29 AM 44.6°F 42.8°F 93% 30.40 in 10.0 miles NNE 3.5 mph - N/A   Overcast
10:53 AM 46.0°F 42.1°F 86% 30.40 in 10.0 miles ENE 3.5 mph - N/A   Mostly Cloudy
11:53 AM 48.0°F 41.0°F 77% 30.41 in 10.0 miles Calm Calm - N/A   Overcast
12:05 PM 46.4°F 39.2°F 76% 30.40 in 10.0 miles Calm Calm - N/A   Mostly Cloudy
12:53 PM 48.0°F 41.0°F 77% 30.40 in 10.0 miles North 3.5 mph - N/A   Scattered Clouds
1:05 PM 48.0°F 41.0°F 77% 30.40 in 10.0 miles North 5.8 mph - N/A   Scattered Clouds
1:53 PM 48.0°F 42.1°F 80% 30.38 in 10.0 miles North 4.6 mph - N/A   Mostly Cloudy
2:11 PM 48.2°F 41.0°F 76% 30.37 in 10.0 miles North 5.8 mph - N/A   Mostly Cloudy
2:53 PM 48.9°F 41.0°F 74% 30.38 in 10.0 miles North 5.8 mph - N/A   Scattered Clouds
3:53 PM 48.9°F 39.9°F 71% 30.38 in 10.0 miles North 8.1 mph - N/A   Partly Cloudy
4:53 PM 46.9°F 39.9°F 77% 30.37 in 10.0 miles North 6.9 mph - N/A   Partly Cloudy
5:53 PM 45.0°F 39.9°F 82% 30.37 in 10.0 miles North 6.9 mph - N/A   Scattered Clouds
6:53 PM 44.1°F 39.9°F 85% 30.38 in 10.0 miles NNW 5.8 mph - N/A   Clear
7:53 PM 44.1°F 39.9°F 85% 30.38 in 10.0 miles North 11.5 mph - N/A   Clear
8:53 PM 44.1°F 39.9°F 85% 30.39 in 10.0 miles North 6.9 mph - N/A   Clear
9:53 PM 44.1°F 39.9°F 85% 30.38 in 10.0 miles NNE 5.8 mph - N/A   Clear
10:46 PM 42.8°F 39.2°F 87% 30.37 in 10.0 miles NNE 4.6 mph - N/A   Partly Cloudy
10:53 PM 43.0°F 39.9°F 89% 30.38 in 10.0 miles NNE 5.8 mph - N/A   Scattered Clouds
11:03 PM 42.8°F 39.2°F 87% 30.37 in 10.0 miles NNE 6.9 mph - N/A   Mostly Cloudy
11:53 PM 44.1°F 41.0°F 89% 30.38 in 9.0 miles North 8.1 mph - N/A   Overcast
Moon Phase
Feb. 01 Feb. 03 Feb. 10 Feb. 17 Feb. 25
Sunrise:07:35 AM (PST) Moon Rise:11:56 PM (PST)
Sunset:05:13 PM (PST) Moon Set:09:44 AM (PST)

Copyright © 2014 The Weather Underground, Inc.